QPF
0.03 0.02 0.02 0.02 0.02 0.02 0.04 0.04 0.05 0.05 0.05 0.05 0.04 0.04 0.04 0.04 0.03 0.03 0.03 0.03 0.04 0.05 0.05 0.06 0.06 0.06 0.06 0.06 0.06 0.07 0.07 0.08 0.07 0.05 0.04 0.02 0.02 0.02 0.02 0.02 0.01 0.01 0.01
0.04 0.02 0.02 0.02 0.01 0.02 0.03 0.03 0.03 0.03 0.03 0.04 0.04 0.04 0.04 0.04 0.03 0.02 0.02 0.02 0.02 0.02 0.03 0.03 0.04 0.04 0.04 0.04 0.05 0.05 0.05 0.06 0.06 0.05 0.04 0.03 0.02 0.02 0.02 0.02 0.02 0.02 0.02
0.04 0.02 0.02 0.02 0.02 0.01 0.02 0.02 0.02 0.02 0.02 0.03 0.04 0.04 0.05 0.04 0.04 0.03 0.03 0.02 0.02 0.02 0.02 0.02 0.02 0.03 0.03 0.03 0.03 0.03 0.04 0.04 0.05 0.04 0.04 0.03 0.03 0.02 0.02 0.02 0.02 0.02 0.02
0.04 0.03 0.03 0.03 0.02 0.02 0.01 0.01 0.01 0.02 0.02 0.02 0.02 0.02 0.03 0.03 0.04 0.03 0.03 0.02 0.02 0.02 0.03 0.03 0.03 0.03 0.03 0.03 0.03 0.02 0.03 0.04 0.04 0.04 0.04 0.04 0.04 0.03 0.03 0.02 0.02 0.02 0.02
0.04 0.03 0.02 0.01 0.01 0.01 0.02 0.02 0.01 0.01 0.01 0.01 0.01 0.01 0.01 0.01 0.01 0.02 0.02 0.02 0.02 0.01 0.01 0.02 0.03 0.04 0.04 0.04 0.04 0.03 0.03 0.04 0.05 0.05 0.05 0.04 0.03 0.04 0.04 0.04 0.03 0.03 0.03
0.02 0.02 0.01 0.01 0.01 0.01 0.01 0.01 0.01 0.01 0.01 0.01 0.01 0.01 0.01 0.00 0.01 0.01 0.02 0.02 0.02 0.02 0.02 0.02 0.03 0.03 0.04 0.05 0.05 0.04 0.05 0.05 0.05 0.05 0.05 0.05 0.04 0.04 0.04 0.04 0.04 0.04 0.04
0.00 0.00 0.01 0.01 0.00 0.00 0.00 0.00 0.00 0.01 0.01 0.01 0.01 0.01 0.00 0.00 0.01 0.01 0.02 0.02 0.02 0.02 0.02 0.02 0.02 0.02 0.03 0.03 0.04 0.04 0.05 0.06 0.05 0.05 0.05 0.05 0.05 0.05 0.05 0.05 0.05 0.04 0.04
0.00 0.00 0.00 0.00 0.00 0.00 0.00 0.00 0.00 0.01 0.01 0.01 0.01 0.01 0.01 0.01 0.01 0.02 0.02 0.02 0.02 0.02 0.02 0.03 0.04 0.04 0.04 0.03 0.03 0.03 0.03 0.04 0.04 0.04 0.04 0.05 0.05 0.05 0.05 0.05 0.04 0.04 0.04
0.00 0.00 0.00 0.00 0.00 0.00 0.00 0.01 0.01 0.01 0.01 0.01 0.01 0.01 0.01 0.01 0.02 0.02 0.03 0.03 0.03 0.03 0.04 0.05 0.05 0.04 0.04 0.04 0.04 0.05 0.05 0.04 0.04 0.05 0.05 0.05 0.05 0.05 0.05 0.04 0.04 0.04 0.04
0.00 0.00 0.00 0.01 0.01 0.01 0.01 0.01 0.02 0.02 0.02 0.02 0.01 0.01 0.01 0.01 0.02 0.02 0.03 0.04 0.04 0.04 0.04 0.05 0.04 0.03 0.04 0.04 0.04 0.05 0.05 0.05 0.04 0.04 0.04 0.05 0.04 0.04 0.04 0.03 0.03 0.03 0.03
0.01 0.01 0.01 0.01 0.01 0.01 0.02 0.02 0.02 0.02 0.02 0.02 0.02 0.02 0.02 0.03 0.03 0.03 0.05 0.06 0.06 0.05 0.05 0.04 0.03 0.03 0.03 0.03 0.03 0.03 0.04 0.04 0.04 0.04 0.03 0.03 0.03 0.03 0.03 0.03 0.02 0.02 0.02
0.01 0.01 0.01 0.02 0.01 0.01 0.02 0.02 0.02 0.02 0.02 0.02 0.02 0.02 0.02 0.03 0.04 0.05 0.06 0.06 0.05 0.04 0.04 0.03 0.03 0.03 0.03 0.04 0.04 0.05 0.05 0.05 0.04 0.04 0.04 0.03 0.03 0.03 0.03 0.03 0.03 0.02 0.02
0.01 0.02 0.02 0.02 0.02 0.02 0.02 0.02 0.02 0.02 0.02 0.02 0.02 0.02 0.02 0.02 0.02 0.04 0.05 0.04 0.03 0.03 0.03 0.04 0.04 0.04 0.04 0.04 0.04 0.05 0.04 0.04 0.04 0.04 0.04 0.04 0.04 0.03 0.03 0.03 0.03 0.03 0.03
0.01 0.02 0.01 0.02 0.02 0.02 0.02 0.02 0.03 0.03 0.03 0.03 0.02 0.02 0.02 0.02 0.01 0.01 0.02 0.02 0.03 0.04 0.04 0.04 0.04 0.04 0.04 0.03 0.04 0.04 0.03 0.03 0.04 0.04 0.04 0.04 0.04 0.04 0.04 0.03 0.03 0.04 0.04
0.01 0.01 0.01 0.01 0.02 0.02 0.02 0.03 0.03 0.03 0.03 0.03 0.02 0.02 0.02 0.02 0.02 0.02 0.03 0.03 0.03 0.03 0.03 0.04 0.05 0.04 0.04 0.03 0.03 0.03 0.03 0.04 0.04 0.04 0.04 0.03 0.04 0.04 0.04 0.04 0.04 0.03 0.04
0.01 0.01 0.01 0.01 0.02 0.02 0.02 0.03 0.02 0.02 0.02 0.02 0.02 0.02 0.01 0.01 0.01 0.02 0.02 0.02 0.02 0.02 0.03 0.03 0.04 0.03 0.03 0.03 0.03 0.03 0.03 0.04 0.04 0.04 0.03 0.03 0.03 0.03 0.03 0.03 0.04 0.04 0.03
0.01 0.01 0.01 0.01 0.01 0.01 0.02 0.03 0.02 0.01 0.01 0.01 0.01 0.01 0.01 0.01 0.01 0.01 0.02 0.02 0.02 0.02 0.02 0.02 0.02 0.02 0.02 0.02 0.02 0.03 0.03 0.03 0.04 0.03 0.03 0.03 0.03 0.03 0.03 0.03 0.03 0.03 0.03
0.02 0.01 0.01 0.01 0.01 0.01 0.02 0.02 0.03 0.02 0.01 0.01 0.01 0.01 0.01 0.01 0.01 0.01 0.02 0.02 0.03 0.02 0.02 0.02 0.02 0.02 0.02 0.02 0.03 0.03 0.03 0.03 0.04 0.04 0.04 0.04 0.03 0.03 0.03 0.03 0.03 0.03 0.03
0.02 0.01 0.01 0.01 0.01 0.01 0.02 0.02 0.02 0.02 0.01 0.01 0.01 0.01 0.01 0.01 0.02 0.02 0.02 0.02 0.02 0.02 0.02 0.02 0.02 0.02 0.02 0.02 0.03 0.03 0.04 0.04 0.04 0.04 0.04 0.04 0.04 0.03 0.03 0.03 0.03 0.03 0.03
0.02 0.02 0.02 0.01 0.01 0.02 0.02 0.02 0.02 0.02 0.02 0.01 0.01 0.01 0.01 0.02 0.02 0.02 0.02 0.02 0.02 0.02 0.01 0.02 0.02 0.02 0.02 0.03 0.03 0.03 0.04 0.04 0.04 0.04 0.04 0.04 0.04 0.04 0.04 0.04 0.04 0.03 0.03
0.02 0.02 0.02 0.02 0.02 0.02 0.02 0.02 0.02 0.02 0.02 0.02 0.02 0.02 0.02 0.02 0.03 0.02 0.02 0.02 0.02 0.02 0.02 0.02 0.02 0.02 0.02 0.03 0.03 0.03 0.03 0.03 0.04 0.04 0.03 0.03 0.04 0.04 0.03 0.03 0.04 0.04 0.04
0.02 0.01 0.02 0.02 0.02 0.02 0.02 0.03 0.02 0.02 0.02 0.02 0.02 0.02 0.02 0.03 0.03 0.03 0.03 0.03 0.02 0.02 0.02 0.02 0.03 0.02 0.02 0.03 0.03 0.03 0.03 0.03 0.03 0.03 0.03 0.03 0.03 0.03 0.03 0.03 0.03 0.04 0.04
0.02 0.01 0.01 0.02 0.02 0.02 0.02 0.02 0.02 0.02 0.02 0.02 0.02 0.02 0.02 0.03 0.03 0.03 0.04 0.03 0.03 0.03 0.02 0.02 0.02 0.02 0.02 0.02 0.02 0.03 0.03 0.02 0.03 0.03 0.03 0.03 0.03 0.03 0.03 0.03 0.03 0.04 0.04
0.02 0.02 0.02 0.02 0.02 0.01 0.02 0.02 0.02 0.02 0.02 0.02 0.02 0.02 0.03 0.03 0.04 0.04 0.04 0.03 0.03 0.03 0.02 0.02 0.02 0.02 0.02 0.02 0.02 0.02 0.02 0.02 0.03 0.03 0.03 0.03 0.03 0.03 0.03 0.03 0.03 0.03 0.03
0.02 0.02 0.02 0.02 0.02 0.02 0.01 0.01 0.02 0.02 0.02 0.02 0.02 0.02 0.03 0.03 0.04 0.04 0.04 0.03 0.03 0.02 0.02 0.01 0.02 0.02 0.01 0.02 0.02 0.02 0.02 0.02 0.02 0.03 0.03 0.03 0.03 0.03 0.03 0.03 0.04 0.03 0.03
0.02 0.02 0.02 0.02 0.02 0.02 0.01 0.01 0.01 0.02 0.02 0.02 0.02 0.03 0.03 0.03 0.03 0.04 0.03 0.03 0.02 0.02 0.02 0.02 0.01 0.02 0.02 0.02 0.02 0.02 0.02 0.02 0.02 0.03 0.03 0.03 0.03 0.03 0.04 0.04 0.03 0.03 0.04
MSLP
1012.75 1013.10 1013.40 1013.62 1013.76 1013.82 1013.82 1013.75 1013.65 1013.51 1013.34 1013.14 1012.90 1012.62 1012.29 1011.93 1011.54 1011.15 1010.79 1010.49 1010.26 1010.11 1010.04 1010.04 1010.10 1010.18 1010.29 1010.40 1010.53 1010.68 1010.87 1011.12 1011.45 1011.85 1012.34 1012.87 1013.44 1014.01 1014.55 1015.05 1015.50 1015.91 1016.29
1012.56 1012.93 1013.26 1013.51 1013.68 1013.76 1013.76 1013.70 1013.59 1013.45 1013.27 1013.07 1012.84 1012.57 1012.26 1011.91 1011.53 1011.14 1010.76 1010.41 1010.12 1009.90 1009.74 1009.66 1009.65 1009.69 1009.78 1009.91 1010.09 1010.32 1010.61 1010.97 1011.39 1011.89 1012.44 1013.03 1013.63 1014.22 1014.77 1015.27 1015.72 1016.12 1016.48
1012.45 1012.82 1013.14 1013.40 1013.58 1013.66 1013.66 1013.60 1013.48 1013.33 1013.15 1012.95 1012.73 1012.48 1012.18 1011.86 1011.50 1011.12 1010.73 1010.37 1010.04 1009.77 1009.56 1009.44 1009.38 1009.40 1009.49 1009.64 1009.86 1010.14 1010.50 1010.92 1011.41 1011.96 1012.55 1013.16 1013.78 1014.38 1014.94 1015.45 1015.91 1016.33 1016.71
1012.44 1012.77 1013.06 1013.30 1013.46 1013.53 1013.52 1013.45 1013.33 1013.18 1013.00 1012.81 1012.59 1012.36 1012.08 1011.78 1011.44 1011.07 1010.70 1010.34 1010.01 1009.73 1009.51 1009.38 1009.32 1009.34 1009.43 1009.61 1009.85 1010.16 1010.54 1010.98 1011.47 1012.02 1012.60 1013.21 1013.82 1014.42 1014.99 1015.52 1016.02 1016.49 1016.93
1012.51 1012.77 1013.01 1013.19 1013.31 1013.35 1013.33 1013.26 1013.14 1012.99 1012.82 1012.64 1012.44 1012.21 1011.95 1011.66 1011.34 1010.99 1010.64 1010.30 1009.99 1009.74 1009.55 1009.44 1009.40 1009.45 1009.57 1009.76 1010.01 1010.32 1010.68 1011.09 1011.54 1012.04 1012.58 1013.14 1013.72 1014.30 1014.89 1015.46 1016.02 1016.56 1017.08
1012.62 1012.79 1012.93 1013.04 1013.10 1013.11 1013.07 1013.00 1012.89 1012.76 1012.61 1012.45 1012.25 1012.03 1011.77 1011.48 1011.17 1010.84 1010.51 1010.20 1009.93 1009.73 1009.59 1009.54 1009.56 1009.65 1009.80 1010.01 1010.26 1010.54 1010.86 1011.21 1011.59 1012.01 1012.46 1012.95 1013.49 1014.05 1014.65 1015.27 1015.90 1016.54 1017.17
1012.71 1012.75 1012.79 1012.81 1012.80 1012.78 1012.74 1012.67 1012.58 1012.48 1012.36 1012.20 1012.02 1011.79 1011.53 1011.23 1010.90 1010.58 1010.26 1009.98 1009.76 1009.62 1009.55 1009.57 1009.66 1009.82 1010.02 1010.26 1010.50 1010.76 1011.03 1011.30 1011.60 1011.92 1012.29 1012.71 1013.19 1013.74 1014.34 1015.01 1015.72 1016.46 1017.20
1012.71 1012.62 1012.54 1012.46 1012.40 1012.35 1012.30 1012.26 1012.20 1012.14 1012.04 1011.91 1011.72 1011.49 1011.20 1010.87 1010.53 1010.19 1009.87 1009.62 1009.44 1009.36 1009.37 1009.47 1009.65 1009.88 1010.14 1010.42 1010.68 1010.93 1011.15 1011.37 1011.59 1011.83 1012.13 1012.48 1012.92 1013.45 1014.07 1014.78 1015.55 1016.37 1017.21
1012.58 1012.36 1012.17 1012.01 1011.90 1011.82 1011.79 1011.77 1011.76 1011.73 1011.67 1011.55 1011.37 1011.11 1010.79 1010.43 1010.05 1009.68 1009.35 1009.10 1008.96 1008.93 1009.01 1009.20 1009.46 1009.78 1010.12 1010.46 1010.76 1011.02 1011.24 1011.44 1011.62 1011.82 1012.07 1012.39 1012.80 1013.31 1013.94 1014.66 1015.46 1016.33 1017.23
1012.31 1011.98 1011.70 1011.47 1011.32 1011.24 1011.22 1011.24 1011.27 1011.28 1011.25 1011.15 1010.96 1010.69 1010.33 1009.93 1009.50 1009.09 1008.74 1008.49 1008.37 1008.38 1008.52 1008.79 1009.14 1009.55 1009.98 1010.39 1010.76 1011.07 1011.33 1011.55 1011.75 1011.95 1012.19 1012.50 1012.90 1013.40 1014.01 1014.72 1015.52 1016.38 1017.27
1011.94 1011.53 1011.18 1010.90 1010.73 1010.65 1010.64 1010.69 1010.76 1010.81 1010.80 1010.71 1010.52 1010.22 1009.84 1009.39 1008.92 1008.48 1008.10 1007.85 1007.73 1007.77 1007.97 1008.30 1008.73 1009.22 1009.75 1010.25 1010.71 1011.12 1011.46 1011.74 1011.99 1012.24 1012.51 1012.84 1013.24 1013.73 1014.31 1014.99 1015.73 1016.53 1017.35
1011.51 1011.04 1010.65 1010.35 1010.16 1010.08 1010.09 1010.15 1010.25 1010.32 1010.33 1010.25 1010.06 1009.74 1009.34 1008.86 1008.36 1007.89 1007.50 1007.24 1007.13 1007.19 1007.42 1007.81 1008.30 1008.88 1009.49 1010.09 1010.66 1011.17 1011.61 1012.00 1012.35 1012.67 1013.01 1013.37 1013.79 1014.27 1014.81 1015.42 1016.07 1016.76 1017.47
1011.06 1010.58 1010.16 1009.85 1009.65 1009.56 1009.57 1009.64 1009.74 1009.82 1009.84 1009.76 1009.56 1009.25 1008.83 1008.35 1007.85 1007.38 1006.98 1006.72 1006.62 1006.70 1006.96 1007.37 1007.92 1008.55 1009.24 1009.93 1010.60 1011.22 1011.78 1012.29 1012.75 1013.18 1013.59 1014.01 1014.45 1014.92 1015.41 1015.94 1016.49 1017.04 1017.61
1010.64 1010.16 1009.74 1009.42 1009.20 1009.10 1009.09 1009.14 1009.23 1009.30 1009.31 1009.23 1009.04 1008.73 1008.33 1007.87 1007.38 1006.93 1006.56 1006.31 1006.23 1006.33 1006.60 1007.03 1007.61 1008.28 1009.01 1009.77 1010.52 1011.24 1011.91 1012.54 1013.11 1013.65 1014.15 1014.63 1015.10 1015.56 1016.02 1016.46 1016.90 1017.33 1017.75
1010.25 1009.79 1009.37 1009.04 1008.81 1008.67 1008.63 1008.65 1008.70 1008.74 1008.74 1008.65 1008.47 1008.18 1007.82 1007.40 1006.96 1006.55 1006.22 1006.02 1005.96 1006.07 1006.35 1006.78 1007.36 1008.04 1008.80 1009.59 1010.39 1011.18 1011.94 1012.66 1013.34 1013.97 1014.56 1015.10 1015.61 1016.08 1016.51 1016.90 1017.26 1017.59 1017.89
1009.87 1009.43 1009.03 1008.69 1008.43 1008.26 1008.18 1008.14 1008.14 1008.14 1008.11 1008.02 1007.85 1007.60 1007.29 1006.93 1006.56 1006.22 1005.95 1005.80 1005.77 1005.90 1006.18 1006.61 1007.17 1007.83 1008.58 1009.37 1010.19 1011.02 1011.83 1012.61 1013.36 1014.07 1014.74 1015.34 1015.90 1016.39 1016.83 1017.20 1017.52 1017.79 1018.02
1009.46 1009.05 1008.66 1008.32 1008.04 1007.83 1007.69 1007.61 1007.55 1007.51 1007.45 1007.35 1007.20 1006.99 1006.74 1006.45 1006.17 1005.92 1005.73 1005.63 1005.64 1005.79 1006.07 1006.48 1007.01 1007.63 1008.34 1009.11 1009.91 1010.74 1011.57 1012.39 1013.18 1013.95 1014.67 1015.34 1015.94 1016.48 1016.94 1017.34 1017.66 1017.93 1018.15
1008.98 1008.60 1008.23 1007.89 1007.60 1007.36 1007.18 1007.05 1006.94 1006.86 1006.78 1006.68 1006.54 1006.38 1006.19 1005.99 1005.80 1005.64 1005.53 1005.50 1005.56 1005.73 1006.01 1006.39 1006.88 1007.46 1008.11 1008.83 1009.60 1010.40 1011.22 1012.04 1012.86 1013.66 1014.42 1015.14 1015.79 1016.38 1016.89 1017.33 1017.69 1017.99 1018.24
1008.40 1008.05 1007.71 1007.39 1007.10 1006.85 1006.64 1006.47 1006.34 1006.24 1006.14 1006.04 1005.94 1005.82 1005.70 1005.58 1005.47 1005.40 1005.37 1005.40 1005.51 1005.70 1005.98 1006.35 1006.80 1007.33 1007.93 1008.60 1009.31 1010.07 1010.85 1011.66 1012.47 1013.28 1014.06 1014.81 1015.51 1016.14 1016.71 1017.20 1017.62 1017.98 1018.28
1007.70 1007.39 1007.09 1006.80 1006.53 1006.29 1006.09 1005.92 1005.78 1005.66 1005.57 1005.49 1005.41 1005.35 1005.29 1005.24 1005.21 1005.22 1005.26 1005.35 1005.51 1005.73 1006.01 1006.37 1006.79 1007.28 1007.83 1008.44 1009.10 1009.81 1010.56 1011.33 1012.12 1012.92 1013.70 1014.46 1015.18 1015.85 1016.45 1016.99 1017.47 1017.88 1018.24
1006.89 1006.63 1006.38 1006.14 1005.92 1005.72 1005.54 1005.39 1005.27 1005.18 1005.10 1005.04 1005.00 1004.98 1004.98 1004.99 1005.03 1005.10 1005.21 1005.36 1005.55 1005.80 1006.10 1006.45 1006.86 1007.32 1007.83 1008.40 1009.02 1009.68 1010.39 1011.12 1011.88 1012.65 1013.41 1014.16 1014.88 1015.55 1016.17 1016.73 1017.23 1017.68 1018.08
1006.01 1005.80 1005.61 1005.43 1005.27 1005.13 1005.01 1004.90 1004.82 1004.76 1004.72 1004.70 1004.70 1004.72 1004.76 1004.83 1004.92 1005.04 1005.20 1005.39 1005.62 1005.90 1006.21 1006.57 1006.97 1007.42 1007.91 1008.46 1009.04 1009.67 1010.34 1011.04 1011.76 1012.49 1013.21 1013.93 1014.62 1015.26 1015.87 1016.43 1016.93 1017.38 1017.79
1005.10 1004.93 1004.80 1004.70 1004.61 1004.54 1004.49 1004.44 1004.42 1004.40 1004.40 1004.42 1004.46 1004.52 1004.60 1004.71 1004.84 1005.00 1005.20 1005.42 1005.68 1005.98 1006.30 1006.67 1007.08 1007.53 1008.02 1008.55 1009.13 1009.73 1010.37 1011.03 1011.71 1012.40 1013.08 1013.75 1014.39 1015.00 1015.56 1016.08 1016.56 1016.99 1017.38
1004.20 1004.08 1004.00 1003.96 1003.94 1003.95 1003.96 1003.98 1004.01 1004.05 1004.10 1004.16 1004.23 1004.33 1004.44 1004.58 1004.74 1004.93 1005.14 1005.39 1005.67 1005.98 1006.32 1006.70 1007.12 1007.58 1008.07 1008.61 1009.17 1009.77 1010.39 1011.03 1011.68 1012.32 1012.96 1013.57 1014.16 1014.72 1015.23 1015.70 1016.14 1016.53 1016.89
1003.36 1003.27 1003.24 1003.25 1003.29 1003.35 1003.42 1003.50 1003.57 1003.66 1003.75 1003.84 1003.95 1004.08 1004.22 1004.38 1004.56 1004.76 1004.99 1005.24 1005.53 1005.85 1006.20 1006.59 1007.02 1007.49 1007.99 1008.53 1009.10 1009.70 1010.31 1010.94 1011.56 1012.18 1012.78 1013.35 1013.89 1014.40 1014.87 1015.30 1015.70 1016.06 1016.39
1002.62 1002.55 1002.54 1002.58 1002.66 1002.75 1002.86 1002.97 1003.08 1003.20 1003.32 1003.44 1003.58 1003.73 1003.89 1004.06 1004.25 1004.46 1004.70 1004.96 1005.25 1005.57 1005.92 1006.32 1006.75 1007.22 1007.73 1008.28 1008.86 1009.46 1010.08 1010.70 1011.32 1011.92 1012.50 1013.05 1013.56 1014.04 1014.48 1014.88 1015.26 1015.60 1015.92
Thickness
5486 5487 5489 5490 5492 5493 5495 5497 5498 5499 5501 5502 5503 5504 5505 5506 5506 5507 5508 5510 5511 5513 5515 5517 5519 5521 5522 5522 5523 5524 5524 5524 5525 5528 5528 5527 5527 5527 5528 5528 5528 5528 5529
5473 5475 5476 5478 5479 5480 5482 5483 5485 5487 5488 5489 5490 5491 5493 5493 5494 5494 5495 5497 5499 5501 5503 5505 5508 5509 5511 5512 5513 5514 5515 5515 5514 5515 5516 5515 5516 5516 5516 5516 5517 5517 5517
5462 5462 5464 5465 5466 5467 5469 5470 5472 5473 5475 5476 5477 5479 5480 5482 5482 5483 5484 5485 5487 5490 5492 5494 5496 5497 5499 5501 5502 5503 5505 5506 5505 5505 5506 5506 5504 5505 5505 5505 5506 5506 5506
5449 5450 5451 5451 5452 5453 5455 5456 5458 5460 5462 5463 5465 5466 5468 5469 5470 5471 5472 5474 5475 5478 5481 5483 5485 5487 5489 5491 5492 5494 5494 5495 5495 5495 5495 5495 5494 5494 5494 5494 5495 5495 5495
5437 5437 5438 5439 5440 5441 5442 5443 5445 5447 5449 5450 5452 5454 5455 5457 5459 5460 5461 5462 5463 5466 5469 5471 5474 5477 5479 5481 5483 5484 5484 5484 5485 5485 5485 5484 5484 5483 5484 5485 5485 5485 5484
5424 5425 5427 5427 5428 5429 5430 5431 5433 5434 5436 5438 5439 5441 5443 5445 5447 5448 5449 5450 5452 5454 5457 5460 5463 5466 5469 5471 5472 5473 5474 5475 5476 5475 5475 5476 5476 5475 5474 5475 5474 5473 5472
5413 5414 5415 5415 5416 5417 5418 5419 5420 5422 5424 5426 5428 5430 5432 5433 5435 5437 5438 5439 5441 5443 5445 5448 5452 5455 5458 5459 5461 5463 5464 5465 5467 5466 5466 5467 5466 5466 5465 5465 5464 5463 5463
5402 5403 5403 5404 5404 5405 5406 5407 5408 5409 5412 5415 5417 5419 5420 5422 5424 5425 5427 5428 5430 5432 5434 5437 5440 5444 5447 5448 5450 5452 5453 5454 5455 5457 5458 5458 5457 5456 5455 5456 5454 5453 5452
5392 5392 5393 5393 5393 5393 5394 5396 5397 5399 5401 5403 5406 5408 5410 5411 5413 5415 5416 5418 5420 5422 5424 5426 5429 5433 5436 5438 5440 5441 5443 5443 5444 5446 5448 5447 5447 5447 5445 5444 5443 5441 5441
5382 5382 5383 5383 5383 5384 5385 5386 5387 5389 5391 5394 5396 5397 5399 5401 5403 5405 5406 5407 5410 5412 5414 5416 5419 5422 5425 5427 5428 5430 5432 5433 5433 5434 5435 5435 5436 5436 5435 5435 5435 5432 5430
5373 5373 5374 5374 5374 5375 5376 5377 5378 5380 5382 5383 5385 5387 5389 5391 5393 5395 5396 5397 5399 5401 5404 5406 5409 5412 5415 5417 5419 5420 5422 5422 5422 5423 5423 5424 5424 5425 5425 5425 5424 5424 5422
5364 5364 5364 5364 5365 5366 5366 5367 5369 5370 5372 5373 5375 5377 5379 5380 5382 5384 5386 5388 5390 5392 5394 5397 5400 5402 5405 5407 5409 5410 5411 5411 5411 5411 5412 5412 5412 5413 5413 5414 5413 5412 5412
5355 5355 5355 5355 5356 5357 5357 5358 5358 5360 5361 5364 5365 5367 5369 5371 5372 5374 5376 5378 5380 5382 5385 5388 5390 5393 5395 5396 5398 5400 5400 5400 5400 5400 5401 5401 5401 5401 5402 5402 5401 5400 5400
5347 5346 5346 5346 5347 5348 5348 5349 5349 5350 5351 5353 5355 5357 5359 5361 5362 5364 5366 5368 5370 5372 5375 5377 5380 5382 5384 5386 5387 5388 5388 5389 5389 5389 5389 5389 5389 5389 5390 5390 5389 5389 5389
5339 5338 5338 5338 5339 5339 5339 5340 5341 5342 5343 5344 5345 5347 5349 5351 5354 5356 5357 5360 5361 5364 5366 5367 5368 5370 5373 5374 5376 5377 5377 5378 5378 5378 5378 5378 5378 5379 5379 5379 5379 5378 5379
5331 5330 5330 5329 5330 5330 5331 5332 5334 5335 5336 5337 5339 5340 5342 5344 5346 5348 5350 5352 5354 5355 5356 5357 5359 5361 5363 5364 5366 5366 5367 5367 5368 5368 5368 5368 5368 5368 5368 5369 5369 5370 5370
5323 5323 5322 5322 5322 5322 5323 5324 5325 5327 5329 5331 5333 5334 5336 5337 5339 5341 5343 5345 5346 5347 5347 5349 5350 5352 5354 5355 5356 5357 5357 5358 5358 5358 5358 5359 5359 5359 5360 5361 5361 5362 5362
5316 5316 5315 5315 5315 5315 5316 5317 5318 5319 5321 5323 5325 5327 5329 5331 5333 5334 5335 5336 5337 5338 5338 5340 5342 5343 5345 5347 5348 5349 5349 5349 5349 5350 5350 5350 5351 5352 5352 5353 5354 5354 5354
5310 5309 5309 5309 5309 5309 5310 5311 5311 5312 5314 5316 5317 5319 5322 5324 5325 5327 5327 5327 5328 5330 5331 5333 5334 5335 5337 5339 5340 5341 5341 5342 5342 5342 5343 5343 5344 5345 5346 5346 5347 5347 5347
5303 5304 5304 5303 5303 5304 5304 5305 5305 5306 5307 5309 5310 5312 5314 5315 5317 5318 5319 5320 5321 5323 5325 5326 5327 5329 5330 5331 5332 5334 5334 5335 5336 5336 5337 5338 5339 5339 5340 5341 5341 5341 5341
5298 5298 5299 5298 5298 5298 5299 5299 5300 5301 5302 5303 5304 5306 5308 5308 5310 5311 5312 5314 5316 5317 5319 5320 5322 5323 5324 5325 5326 5328 5329 5329 5330 5331 5332 5333 5334 5334 5335 5336 5336 5336 5336
5293 5293 5293 5293 5293 5293 5294 5294 5294 5295 5296 5297 5298 5299 5302 5302 5303 5305 5306 5308 5310 5311 5313 5314 5316 5317 5319 5320 5321 5323 5324 5325 5326 5327 5328 5329 5330 5330 5331 5331 5331 5331 5331
5288 5288 5288 5288 5288 5289 5289 5288 5288 5289 5290 5291 5292 5293 5294 5295 5296 5298 5300 5302 5304 5306 5307 5309 5310 5312 5313 5315 5317 5319 5321 5322 5323 5324 5325 5326 5326 5327 5327 5327 5327 5327 5326
5283 5283 5283 5282 5282 5283 5282 5282 5282 5283 5284 5285 5286 5286 5287 5289 5291 5293 5294 5297 5299 5301 5302 5303 5305 5307 5309 5311 5313 5315 5317 5318 5320 5321 5322 5323 5323 5323 5323 5323 5323 5323 5322
5278 5277 5277 5277 5276 5276 5276 5277 5277 5278 5279 5280 5281 5281 5282 5284 5285 5287 5289 5291 5294 5296 5297 5299 5300 5303 5305 5307 5309 5311 5313 5315 5316 5317 5318 5319 5320 5320 5320 5319 5319 5318 5317
5272 5271 5271 5271 5271 5271 5271 5272 5273 5273 5274 5275 5275 5276 5277 5278 5280 5282 5284 5286 5288 5290 5292 5294 5296 5298 5300 5302 5305 5307 5309 5311 5312 5313 5314 5315 5316 5316 5316 5315 5315 5314 5312